Tracking 17636 objects as of 30-April-2016
HD Live streaming from Space Station
objects crossing your sky now

TERRIERS

Track TERRIERS now!
10-day predictions
TERRIERS is classified as:


NORAD ID: 25735
Int'l Code: 1999-026A
Perigee: 439.9 km
Apogee: 449.1 km
Inclination: 97.1 °
Period: 93.3 minutes
Semi major axis: 6815 km
RCS: 0.4968 m2 (medium)
Launch date: May 18, 1999
Source: United States (US)
Launch site: Pegasus launched from Western Range Air Space (WRAS)
Your satellite tracking list
Your tracking list is empty





NASA's NSSDC Master Catalog

Two Line Element Set (TLE):
1 25735U 99026A   16120.84205260  .00003743  00000-0  86877-4 0  9992
2 25735  97.1429 286.8209 0006726  85.0747  59.1064 15.42972908942505
Source of the keplerian elements: AFSPC

N2YO: 279